Location: Unspecified
(0.0000°N, 1.0000°E)
Time: 02:10:51
(UTC+01:00)

Daily predictions for brighter satellites

Satellite Brightness Start Highest point End
(mag) Time Altitude Azimuth Time Altitude Azimuth Time Altitude Azimuth
Milstar 3 Cent rocket 4.4 03:46:23 41° NNE 03:46:23 41° NNE 03:56:15 10° NE
CZ-3C R/B 3.8 04:02:43 44° SSW 04:03:24 45° S 04:35:10 10° ESE
CZ-3C R/B 3.8 04:02:43 44° SSW 04:03:24 45° S 04:35:09 10° ESE
CZ-3C R/B 3.8 04:02:42 44° SSW 04:03:25 45° S 04:35:09 10° ESE
USA 234 3.8 03:59:44 10° SE 04:05:37 49° ENE 04:05:37 49° ENE
SL-16 R/B 3.7 04:05:43 10° S 04:10:45 34° ESE 04:15:47 10° NE
CENTAUR R/B 3.8 04:22:56 31° N 04:26:54 51° ENE 04:34:46 10° SE
SWIFT 4.5 04:32:11 22° SSE 04:32:11 22° SSE 04:35:10 10° ESE
Cosmos 1151 Rocket 4.5 04:40:48 30° S 04:40:48 30° S 04:43:01 10° S
ARIANE 5 DEB (SYLDA) 4.2 04:38:48 67° WNW 04:39:54 81° N 04:55:26 10° E
Cosmos 1844 Rocket 4.5 04:38:17 12° NNE 04:42:25 27° ENE 04:47:03 10° SE
Cosmos 1666 Rocket 4.3 04:43:41 10° S 04:46:53 47° S 04:46:53 47° S
ARIANE 5 DEB (SYLDA) 2.9 04:50:33 62° WNW 04:51:28 80° N 05:01:57 10° E
Meteor 1-31 Rocket 3.6 04:52:45 27° NE 04:54:34 51° ESE 04:58:24 10° S
Milstar 3 3.4 04:53:28 36° WSW 04:55:06 41° SSW 05:01:24 10° SE
Sich 1 4.1 04:51:00 10° S 04:53:29 34° SSW 04:53:29 34° SSW
CZ-4B R/B 3.1 04:50:26 10° N 04:56:04 85° WNW 05:01:40 10° SSW
GPS 2-14 Rocket1 3.2 04:58:11 53° ENE 04:58:11 53° ENE 05:01:24 10° ESE
USA 215 3.1 04:51:28 10° NNE 04:57:54 65° NW 05:04:22 10° SW
Okean O Rocket 3.2 05:02:19 22° SSW 05:02:19 22° SSW 05:03:57 10° SSW
ARIANE 5 DEB (SYLDA 5A) 4.3 04:50:09 26° W 05:02:12 84° S 05:06:50 10° E
In-Cosmos 22 Rocket 4.2 04:56:52 10° S 05:02:21 80° E 05:07:58 10° N
Cosmos 1605 Rocket 4.0 05:00:56 42° NW 05:02:52 59° W 05:09:09 10° S
PAYLOAD B 4.2 05:02:08 40° NNW 05:03:51 57° WNW 05:09:21 10° SSW
CZ-4B R/B 3.9 05:03:07 26° NNE 05:05:13 73° ESE 05:08:58 10° S
Ariane H10 3.6 05:05:17 40° NW 05:06:21 44° NNW 05:09:42 10° ENE
Cosmos 1892 4.2 05:03:04 10° SSE 05:06:40 37° E 05:10:12 10° NNE
Meteor 2-17 Rocket 4.3 05:02:50 18° N 05:07:29 85° W 05:13:34 10° S
Cosmos 2263 Rocket 4.1 05:18:17 12° SW 05:18:17 12° SW 05:19:14 10° SW
Cosmos 2100 Rocket 4.3 05:14:31 10° N 05:20:50 69° E 05:27:07 10° S
Meteor 2-3 Rocket 4.4 05:16:59 10° S 05:22:41 58° E 05:28:21 10° NNE
Ariane H10 3.7 05:23:27 28° W 05:26:43 77° N 05:54:50 10° E
Cosmos 1869 3.2 05:25:29 22° NNW 05:27:58 68° W 05:31:59 10° S
COSMOS 2455 3.2 05:25:33 10° N 05:31:30 67° ENE 05:37:27 10° SSE
HETE-2 4.5 05:30:04 35° W 05:31:44 78° N 05:35:52 10° E
Cosmos 1992 Rocket 3.9 05:29:01 10° SSW 05:34:14 76° WNW 05:39:27 10° N
Cosmos 2123 Rocket 3.9 05:28:18 10° S 05:34:26 68° W 05:40:34 10° N
ARIANE 5 R/B 2.2 05:35:54 16° N 05:36:01 16° NNE 05:37:57 10° NE
SYLDA PLATFORM 4.0 05:39:32 18° WSW 05:42:09 49° S 05:45:42 10° ESE
GP-B 4.4 05:42:16 10° SW 05:45:38 21° W 05:46:55 19° WNW
ATLAS 5 CENTAUR R/B 2.4 05:41:29 10° S 05:45:54 53° ESE 05:50:13 10° NE
OAO 3 Rocket 3.1 05:43:47 19° NW 05:47:06 85° SW 05:51:47 10° SE
USA 234 4.4 05:43:37 10° S 05:48:45 25° SW 05:52:59 13° W
Cosmos 1470 Rocket 3.9 05:44:34 10° SSW 05:48:50 43° W 05:53:04 10° NNW
Cosmos 1340 3.8 05:45:34 10° N 05:49:11 46° E 05:52:50 10° SSE
Cosmos 1346 Rocket 4.0 05:50:54 17° WNW 05:52:47 23° W 05:56:02 10° SSW
NOAA 6 4.0 05:48:26 10° N 05:53:28 65° WNW 05:58:33 10° SSW
SL-16 R/B 3.5 05:51:10 10° WSW 05:54:35 16° WNW 05:58:00 10° NW
Feng Yun 1-1 Rocket 4.4 05:51:23 10° N 05:57:09 57° WNW 06:02:52 10° SSW
Cosmos 1603 3.6 05:53:45 10° SSW 05:59:17 64° WNW 06:04:49 10° N
Cosmos 2061 Rocket 4.1 05:53:04 10° NNW 05:59:24 65° W 06:05:42 10° S
Haruka 3.2 05:56:20 11° WSW 05:59:29 45° NNW 06:05:59 10° NE
GPS 2-05 Rocket1 3.7 05:58:22 14° W 06:00:48 34° SW 06:03:51 10° SSE
IDEFIX/ARIANE 42P 2.6 05:56:21 10° NNE 06:01:32 88° ESE 06:06:44 10° SSW
Okean-O 3.1 06:04:13 10° N 06:08:20 39° WNW 06:12:27 10° SSW
Centaur Rocket 3.6 06:02:37 10° W 06:10:25 46° NNW 06:13:23 10° NE
Cosmos 1825 2.4 06:07:54 10° S 06:11:40 76° E 06:15:25 10° N
SWIFT 2.3 06:09:35 10° WSW 06:13:48 86° SSE 06:18:01 10° ENE
Sakura Rocket 4.0 06:11:28 10° WSW 06:16:54 68° NNW 06:24:36 10° NE
CENTAUR R/B 4.2 06:11:07 10° WNW 06:17:25 23° WSW 06:23:32 10° SSW
Cosmos 1869 Rocket 3.6 06:17:04 10° S 06:21:23 85° E 06:25:42 10° N
USA 32 4.4 06:16:47 10° SSW 06:21:44 43° W 06:26:38 10° NNW
BREEZE-M DEB (TANK) 3.5 06:19:03 10° SW 06:28:23 89° WNW 06:31:22 10° NE
CZ-3 R/B 3.9 06:16:11 10° W 06:30:46 25° SW 06:36:27 10° S
BLOCK DM-SL R/B 4.4 06:21:30 10° W 06:41:22 90° SSW 06:46:26 10° E
